Location: Seattle
(47.6064°N, 122.3308°W)
Time: 02:48:29
(UTC-08:00)

A-11 Canister half - Pass Details

Date: 27 November 2020
Orbit: 1524 x 1684 km, 47.3° (Epoch: 21 January)

Event Time Altitude Azimuth Distance (km) Brightness Sun altitude
Rises 07:24:10 0° 243° (WSW) 4,931 11.3 -2.0°
Reaches altitude 10° 07:27:21 10° 242° (WSW) 3,938 10.9 -1.6°
Maximum altitude 07:37:25 75° 160° (SSE) 1,709 9.5 -0.1°
Drops below altitude 10° 07:47:15 10° 77° (ENE) 3,848 11.8 1.3°
Sets 07:50:20 0° 76° (ENE) 4,813 12.3 1.7°
